Location: Curupao
(10.4996°N, 66.6442°W)
Time: 20:32:40
(UTC+00:00)

Nadezhda 3 Rocket - Pass Details

Date: 23 May 2024
Orbit: 956 x 998 km, 82.9° (Epoch: 23 June)

Event Time Altitude Azimuth Distance (km) Brightness Sun altitude
Rises 08:40:06 0° 342° (NNW) 3,695 7.1 -19.6°
Reaches altitude 10° 08:42:49 10° 334° (NNW) 2,741 6.4 -19.0°
Maximum altitude 08:48:30 37° 269° (W) 1,483 4.5 -17.8°
Enters shadow 08:51:47 22° 218° (SW) 1,988 5.1 -17.1°
